Theta_e
300 300 301 301 301 301 301 302 302 302 303 302 303 303 303 303 304 302 299 299 296 293 295 298 298 294 294 295 294 298 300 301 302 301 300 297 298 299 299 301 301 302 301 300 298 297 294 309 308 303 310 311 314 314
300 301 301 301 301 301 301 301 301 302 302 302 303 303 302 303 304 303 298 300 300 294 294 299 300 302 300 299 295 298 299 300 302 300 299 298 296 297 299 295 302 297 303 301 303 301 308 311 312 314 313 315 315 316
301 300 301 301 301 301 301 300 301 302 302 302 302 303 302 303 303 303 299 300 299 295 295 295 296 300 302 301 303 295 300 300 301 303 302 300 297 299 296 297 300 304 306 304 303 306 308 312 315 316 316 317 316 315
300 300 300 300 301 301 300 300 301 302 302 302 302 302 302 303 303 303 299 299 297 295 290 293 300 299 302 302 301 302 302 301 301 301 301 302 300 302 300 302 302 305 307 305 304 307 310 312 314 314 314 314 312 312
299 300 300 300 300 300 300 300 301 301 301 302 302 303 302 303 303 303 301 299 300 293 289 291 297 299 300 301 302 301 300 298 297 299 299 299 300 300 301 302 301 306 305 304 303 309 311 312 315 314 313 313 313 311
299 300 300 300 300 300 300 300 300 300 301 301 302 302 303 303 302 300 295 298 300 299 292 287 297 296 299 302 301 300 299 297 296 297 296 297 297 299 299 297 301 306 308 309 309 312 312 314 316 315 314 313 313 312
299 299 300 300 300 300 300 300 300 300 301 301 301 302 302 302 302 295 294 297 301 300 293 289 290 296 298 298 298 299 298 296 296 294 293 295 295 298 297 296 302 306 307 309 312 314 311 314 314 316 315 313 311 312
298 299 299 299 300 299 299 299 300 299 300 301 301 301 302 303 302 297 301 303 302 296 295 288 287 291 297 294 293 297 295 295 293 293 294 293 294 293 293 296 296 301 307 308 310 313 312 315 316 316 314 312 310 309
298 299 299 300 299 297 298 298 299 299 299 300 301 302 300 298 295 299 303 302 300 297 290 288 286 287 296 294 296 295 295 290 293 292 293 293 291 290 292 297 298 296 301 301 303 311 313 312 312 314 314 312 311 310
299 299 299 299 299 297 298 297 298 298 299 301 300 295 291 297 302 301 298 294 294 294 292 288 291 287 293 294 293 294 293 289 287 291 293 291 290 298 300 302 302 301 300 300 299 303 311 311 311 312 314 315 314 313
299 299 299 299 299 298 298 298 299 299 300 297 293 292 297 300 296 294 289 288 289 286 290 290 289 288 294 292 292 294 291 291 287 289 289 288 290 298 301 301 302 303 304 301 305 307 309 312 312 312 313 314 315 315
299 299 299 299 299 298 298 298 300 298 297 296 296 298 297 293 290 287 285 287 287 284 288 287 290 292 294 296 292 292 290 290 285 292 290 286 294 297 299 299 300 303 305 304 302 303 302 308 312 311 310 312 314 316
299 299 299 299 299 297 297 298 300 300 299 300 295 290 289 287 281 281 279 282 284 289 291 290 290 294 293 293 291 291 286 286 290 287 287 291 295 297 297 298 299 301 303 306 306 308 308 307 309 311 311 313 314 312
299 299 299 299 299 298 298 299 299 299 296 289 287 281 283 281 283 284 286 287 292 293 293 292 291 292 292 291 291 286 289 290 284 282 286 291 293 295 296 297 298 298 299 301 305 309 310 312 313 313 314 314 311 309
300 299 299 299 299 300 299 299 299 298 294 287 287 281 283 288 289 290 292 292 293 296 293 292 292 291 290 289 290 288 285 283 286 286 292 296 296 295 295 295 296 297 299 299 303 307 310 311 312 312 314 313 312 309
300 299 298 299 299 300 300 298 297 297 292 289 288 285 288 287 288 290 290 291 295 295 293 291 287 286 286 288 285 284 283 282 288 294 296 295 294 295 295 295 296 297 299 299 302 306 310 311 312 313 313 312 310 309
297 294 299 300 300 300 299 296 295 290 288 287 286 289 289 288 287 289 291 293 296 292 289 288 285 283 288 286 284 288 286 290 292 294 293 294 295 295 296 296 296 297 299 300 301 305 308 309 312 311 309 309 308 306
295 297 300 301 299 297 296 295 291 289 285 287 285 287 288 289 289 290 293 296 293 292 291 287 290 285 284 282 285 290 292 293 295 295 294 295 295 296 295 296 296 297 298 299 301 303 308 309 309 309 310 308 307 305
296 300 301 299 296 293 289 290 292 285 286 288 288 289 289 290 291 293 295 295 295 295 292 291 287 286 287 289 290 291 292 292 292 293 293 295 295 295 295 296 297 297 298 300 301 302 302 305 310 308 308 309 307 304
300 300 300 299 298 293 289 289 292 287 286 287 289 290 289 290 291 293 295 295 294 292 289 287 287 289 290 291 293 293 293 294 293 292 292 294 296 296 296 296 297 298 299 300 302 293 304 307 308 309 309 307 306 304
296 297 297 297 295 294 291 289 288 288 289 289 290 289 289 292 291 291 292 294 292 290 289 291 292 294 294 294 295 295 294 294 293 293 293 293 296 295 297 298 299 299 299 301 301 302 297 306 307 305 307 307 306 303
295 298 296 296 292 292 291 292 290 290 289 289 289 290 289 289 290 291 292 291 290 291 292 290 291 293 293 293 294 295 295 295 295 295 293 294 294 294 295 296 297 298 299 300 301 302 305 310 308 307 305 302 300 299
297 296 294 293 288 286 285 293 288 289 286 287 289 288 288 289 290 293 289 290 291 294 293 292 293 293 291 292 292 292 293 292 291 292 293 295 295 296 296 297 297 298 299 300 302 303 305 299 300 304 302 301 299 297
295 290 286 286 286 284 289 287 289 288 289 287 287 285 287 289 290 288 286 289 291 292 292 291 290 288 288 289 289 290 292 294 292 292 294 294 294 295 296 298 298 298 301 303 303 303 306 305 299 303 301 300 300 300
283 282 284 280 287 285 284 285 286 287 284 286 285 286 288 289 286 283 282 288 289 289 289 288 286 287 286 288 293 297 302 301 299 297 295 295 295 296 296 299 300 301 303 302 303 305 305 304 304 303 301 301 301 302
278 283 282 284 285 284 284 283 284 284 285 284 286 289 290 288 283 281 285 287 287 287 286 285 285 285 290 294 295 297 300 302 300 296 295 297 297 296 296 296 297 299 304 304 306 305 304 304 303 303 301 297 293 302
280 282 286 289 287 287 286 288 288 286 285 284 287 286 286 281 281 285 289 289 286 287 288 289 291 293 293 294 297 300 303 304 302 301 301 301 302 302 300 299 298 303 305 307 308 306 304 305 304 302 300 302 303 303
286 286 282 286 287 288 286 286 285 285 286 288 288 282 281 281 282 286 286 288 287 289 293 297 297 298 296 296 297 297 299 302 306 305 305 306 307 307 308 307 308 294 309 310 309 306 306 304 303 303 304 303 303 304
286 289 289 286 287 287 286 285 285 286 288 289 285 283 283 287 287 286 286 286 293 295 294 293 294 298 300 299 298 297 297 302 301 299 299 299 301 302 306 306 306 305 304 300 291 299 304 304 305 305 304 304 304 304
287 291 288 287 285 284 286 288 287 289 289 288 288 288 288 288 286 289 290 292 292 292 294 294 294 295 294 296 296 296 295 297 301 301 298 298 299 303 304 305 304 303 302 300 299 297 292 300 297 303 302 303 303 303
291 290 288 288 286 288 290 291 292 291 290 288 289 287 287 288 290 292 291 292 294 293 293 293 294 295 295 294 292 294 293 294 296 300 302 303 304 304 305 305 305 306 305 304 303 302 303 302 302 301 301 301 301 300
289 288 287 285 287 291 292 291 290 288 289 288 288 289 289 287 287 291 292 293 294 292 290 293 293 293 295 297 297 296 290 293 292 293 297 299 301 304 306 307 307 307 307 306 305 304 303 302 302 302 301 301 301 302
289 290 289 289 288 288 291 289 288 287 288 287 287 288 287 287 285 291 296 296 295 294 294 294 295 295 295 295 296 297 295 299 292 288 287 287 287 293 303 305 306 307 306 305 306 305 304 303 302 301 301 301 302 302
Wind_Speed
8 9 9 8 8 7 8 8 6 8 9 8 8 7 5 7 8 5 2 6 4 3 7 5 4 3 6 2 3 6 3 3 1 3 4 4 3 4 4 4 4 7 6 3 4 3 7 5 7 8 1 3 7 6
11 11 10 9 10 11 10 9 8 11 8 7 8 7 5 6 7 6 2 2 5 4 5 4 14 15 12 13 5 3 4 3 3 2 1 3 3 3 4 6 1 5 1 4 6 3 3 2 1 1 2 4 5 6
10 8 10 9 9 9 8 8 9 9 7 8 8 7 5 6 1 3 2 2 3 3 6 5 9 2 6 13 7 3 1 3 2 3 0 2 3 1 4 3 4 2 1 2 4 4 2 1 1 1 1 6 7 6
10 10 8 9 8 7 7 8 9 9 6 4 6 6 6 5 2 2 2 1 2 3 4 4 3 5 4 6 11 5 4 1 1 2 1 2 2 2 3 4 1 2 5 4 3 4 2 3 2 5 7 9 10 8
6 5 7 10 8 6 4 7 7 6 7 7 5 8 7 4 2 2 4 3 3 3 3 6 10 2 4 6 8 5 3 2 0 1 0 2 2 3 2 2 3 5 5 4 3 2 1 4 4 6 8 9 9 11
8 7 7 8 8 6 6 6 7 8 8 6 5 5 6 3 1 1 3 2 2 2 3 4 3 3 2 7 7 6 3 2 1 1 2 2 2 2 3 3 2 5 4 3 1 3 3 3 3 3 8 9 8 8
8 8 8 8 9 8 8 5 7 5 7 5 3 3 4 2 1 2 1 1 3 1 3 4 4 1 2 3 2 2 3 2 2 2 1 1 1 3 1 3 3 5 2 4 3 5 3 4 4 5 8 8 8 9
9 9 8 8 9 6 5 5 7 3 4 5 5 7 6 3 5 4 5 11 4 3 2 1 4 3 1 2 3 1 2 1 4 2 1 1 2 1 3 2 6 3 2 3 4 3 2 6 6 7 8 10 10 10
10 9 9 9 7 1 4 1 6 6 4 9 9 9 0 3 4 1 2 7 1 3 2 3 3 2 1 2 2 2 1 2 1 1 1 2 1 3 1 7 7 5 3 1 2 3 5 6 7 7 9 10 11 11
11 10 9 7 5 3 5 2 7 6 11 9 2 3 3 2 4 1 3 2 3 2 1 2 3 4 1 1 2 3 1 3 3 2 2 1 2 3 2 5 6 6 8 2 7 5 6 7 9 8 9 8 8 10
13 11 9 6 4 3 3 4 10 9 1 2 1 1 2 4 1 2 3 3 3 2 3 2 6 4 2 4 4 1 3 3 4 4 4 4 5 3 5 6 6 6 6 9 9 7 8 9 6 8 6 7 7 10
13 11 8 5 4 5 3 6 5 1 0 1 0 1 1 2 1 3 2 2 4 3 4 3 3 3 2 1 1 3 2 2 3 5 4 5 4 4 4 5 8 8 6 6 8 7 6 9 7 4 5 6 7 8
12 11 8 6 5 3 2 6 1 2 1 1 2 1 1 1 2 3 4 3 2 1 2 2 3 1 3 3 2 3 4 2 4 3 2 2 3 4 5 5 5 9 9 7 2 3 5 5 5 6 7 6 7 9
13 11 8 6 6 7 4 2 2 2 2 1 0 1 3 3 3 1 0 1 1 2 1 2 2 1 1 1 1 2 3 3 3 4 4 4 3 2 4 5 6 9 10 10 8 5 3 2 3 4 8 10 10 10
13 11 8 6 6 6 5 0 2 1 1 1 1 1 1 1 2 3 2 2 1 1 1 2 3 2 2 2 2 2 3 3 3 3 4 7 8 2 5 6 7 8 8 8 8 7 5 5 1 3 5 8 11 12
12 9 3 4 3 3 3 2 1 0 0 1 2 2 1 2 1 0 1 2 1 1 2 3 1 2 1 1 2 2 3 3 3 2 6 6 3 4 5 7 7 7 7 7 7 7 5 4 2 5 6 8 11 13
7 1 6 7 5 3 3 0 0 1 0 1 0 0 4 2 2 2 1 1 1 1 2 2 3 2 2 2 3 1 1 2 5 5 3 2 3 5 5 7 8 8 7 8 8 8 6 3 4 7 10 7 8 8
2 2 9 8 4 1 1 1 0 0 0 1 1 2 1 2 4 2 2 1 2 2 2 2 3 2 2 3 3 3 3 3 2 1 1 2 4 5 5 7 6 7 6 6 6 7 6 3 4 3 7 10 11 12
4 5 8 5 1 0 1 1 1 2 1 2 2 2 2 2 1 2 0 1 1 2 3 1 2 2 2 1 2 3 2 0 2 3 5 7 7 6 5 6 7 6 5 5 5 4 4 6 2 5 6 7 7 7
11 9 4 3 0 1 1 1 1 1 2 2 2 3 3 1 2 1 0 1 1 1 1 1 1 1 1 2 3 4 6 6 6 8 9 7 5 7 6 5 4 4 3 3 3 3 2 1 3 4 6 7 8 9
4 4 5 3 1 2 1 1 0 1 2 2 2 3 2 1 1 1 1 2 0 1 1 1 2 4 6 7 7 7 8 8 9 10 10 8 6 7 6 5 5 4 3 2 2 2 2 2 5 5 7 7 8 8
1 3 2 2 2 2 1 1 2 2 2 2 2 2 1 1 1 2 2 0 1 1 2 4 7 8 10 13 11 10 11 12 12 10 11 8 8 8 9 7 6 6 5 4 4 3 3 3 5 6 8 9 10 8
1 2 1 2 1 2 1 2 2 2 3 4 2 0 1 1 2 2 0 1 1 1 5 8 10 11 13 15 15 16 15 14 11 11 10 10 9 8 7 7 8 8 7 6 5 4 3 5 7 8 8 9 10 9
3 3 4 3 3 2 3 2 1 2 1 2 3 2 2 2 3 2 2 1 1 6 10 11 8 10 10 10 9 10 10 9 11 11 10 10 8 9 9 8 8 7 7 5 5 5 4 8 10 8 9 10 11 12
3 5 3 4 2 3 4 3 4 2 2 3 3 2 2 2 2 3 2 3 7 10 8 9 8 7 8 10 8 8 4 3 5 7 9 11 9 8 8 7 8 8 7 6 7 6 8 10 10 10 11 11 13 16
5 4 3 5 3 3 3 3 4 3 3 3 3 3 2 1 3 3 2 4 7 8 10 9 10 10 10 8 7 6 1 3 3 5 8 9 10 9 10 10 9 8 7 6 5 11 11 11 12 16 11 11 11 17
4 4 2 0 1 2 1 1 2 2 3 4 4 5 3 4 4 3 4 3 6 9 10 10 8 7 7 7 6 7 6 4 4 7 9 9 8 9 10 10 11 8 8 7 11 12 12 13 14 14 12 13 13 14
2 1 1 3 2 1 3 3 4 5 4 4 2 6 4 5 3 4 3 9 11 11 9 6 7 6 7 7 7 8 7 4 9 11 9 8 7 7 8 5 7 11 9 11 11 10 12 12 13 13 16 14 12 12
1 1 2 3 2 3 4 5 4 3 4 3 2 2 2 2 3 4 6 9 9 6 9 11 12 8 7 9 11 11 12 10 16 19 16 10 10 8 9 10 11 10 10 10 11 11 14 12 14 14 15 12 11 11
2 2 3 2 4 6 5 3 2 3 3 3 2 2 0 2 3 6 7 9 10 9 7 7 8 11 12 13 13 16 14 13 11 15 16 14 12 9 11 11 12 11 11 11 13 14 14 15 13 12 12 11 10 10
1 2 2 4 3 1 2 1 1 2 3 4 4 3 3 3 2 3 7 8 8 9 12 13 13 13 13 13 12 13 12 11 12 12 8 6 7 8 8 9 8 9 9 9 9 11 13 12 12 13 13 14 13 12
1 1 2 3 2 1 0 2 2 2 2 3 3 2 1 2 5 5 6 7 8 10 10 10 11 11 12 9 10 9 7 8 9 8 10 7 8 9 8 7 7 9 10 12 12 13 15 14 12 12 13 15 14 14
3 3 4 1 1 1 1 1 2 2 2 2 3 2 3 3 5 3 4 4 5 6 7 7 7 9 12 13 13 10 10 11 13 15 16 14 12 9 8 8 7 8 11 9 9 11 12 15 13 14 13 13 13 13
Wind_Direction
288 292 300 297 294 298 307 312 295 299 287 283 292 271 284 295 300 183 252 193 219 262 279 267 294 342 339 349 330 1 254 195 146 161 183 146 190 166 144 137 174 177 167 144 111 168 239 150 139 209 133 126 175 176
280 277 287 287 284 282 289 295 302 300 270 272 276 263 266 290 317 159 257 204 204 250 291 299 276 262 249 250 272 282 316 292 358 117 172 133 124 206 144 161 102 180 249 177 207 179 83 208 12 42 191 149 161 165
296 289 293 297 299 295 261 293 305 307 268 265 268 251 266 279 231 189 243 208 207 254 265 255 258 234 236 234 207 264 203 322 293 336 149 110 138 176 153 150 122 121 166 139 181 168 221 29 116 117 176 131 120 112
284 291 301 304 299 290 263 298 303 303 260 288 278 242 269 273 229 211 232 163 263 287 281 292 316 281 277 203 195 214 294 128 322 280 5 82 126 250 143 98 151 58 152 148 270 253 249 182 155 123 110 113 115 116
323 306 295 301 301 299 280 299 302 295 281 266 303 241 258 258 307 275 230 212 229 273 306 294 306 268 266 175 163 155 176 168 263 226 152 105 100 155 66 133 164 188 154 187 212 147 29 111 125 137 137 135 133 130
303 300 310 315 307 305 265 284 304 302 269 256 317 279 252 243 29 262 211 156 197 220 270 289 348 307 79 133 120 93 82 73 64 9 65 95 36 283 144 176 137 180 193 201 110 144 107 110 133 138 124 136 139 134
278 287 294 302 306 296 292 265 288 271 281 270 296 329 324 324 180 237 245 205 186 303 250 287 319 25 103 114 73 88 57 61 24 85 72 36 92 337 115 156 149 187 191 183 169 140 136 171 165 143 120 118 123 129
263 272 283 291 304 302 306 290 302 305 292 304 324 295 277 252 248 257 210 234 218 243 260 279 294 252 213 132 128 1 102 45 33 67 160 72 128 323 191 24 7 5 168 182 189 223 341 130 151 166 133 140 145 146
249 257 272 271 292 350 304 285 338 322 316 291 299 309 307 183 204 113 156 140 159 272 220 154 282 127 219 100 95 129 205 139 34 112 120 238 162 212 7 318 323 321 282 85 350 197 162 173 167 173 167 170 167 158
234 242 254 279 270 202 298 52 308 276 266 285 261 213 202 164 297 145 172 211 201 175 230 231 133 253 229 205 118 134 53 113 166 106 145 217 136 111 11 319 312 298 265 294 226 221 206 211 200 190 192 187 186 171
220 228 236 263 241 190 276 247 272 273 130 186 205 304 13 319 112 251 192 215 159 221 200 190 194 263 148 205 134 266 143 155 185 141 208 173 169 120 8 360 349 318 276 232 234 255 257 251 225 208 194 187 181 181
208 208 218 237 217 186 264 256 279 58 265 176 358 345 289 176 120 209 206 133 211 217 176 208 198 220 133 43 156 173 143 188 164 143 193 183 116 62 23 357 9 2 346 230 224 238 268 257 254 212 188 183 197 180
188 188 197 209 180 202 211 278 40 348 189 182 213 216 230 100 183 220 187 179 218 189 175 190 173 204 166 182 164 174 174 122 138 194 176 92 84 55 6 0 11 23 23 37 33 277 245 254 252 212 195 181 152 163
172 177 182 196 184 210 162 147 221 215 85 17 29 206 229 182 233 222 207 295 22 275 275 204 100 25 321 108 39 158 81 163 153 181 186 127 140 331 348 5 13 7 14 19 14 356 338 308 291 255 181 163 156 157
162 166 174 198 188 142 183 73 71 220 157 117 231 212 181 24 259 296 291 257 162 348 200 116 48 339 34 105 34 123 161 184 211 186 134 143 143 109 32 18 6 2 2 7 6 3 5 3 40 130 155 153 146 144
150 148 182 198 161 174 95 43 45 168 182 221 223 243 306 231 280 348 228 122 116 75 107 82 159 277 100 80 172 193 213 202 105 109 124 129 110 53 15 5 2 348 350 354 358 1 3 17 52 124 139 148 144 149
107 115 175 164 159 121 54 53 237 181 252 256 50 154 272 288 336 351 307 174 97 194 171 183 142 91 105 187 188 215 10 66 118 114 116 80 21 6 339 334 341 348 355 352 352 2 6 40 114 146 140 142 134 124
72 149 153 144 114 66 350 359 272 184 174 219 281 45 244 204 265 249 242 146 213 187 181 80 134 139 157 159 145 127 126 124 84 96 234 269 286 291 302 312 324 322 332 337 355 350 3 63 104 120 142 135 120 110
133 135 135 135 140 97 355 59 344 20 358 322 305 297 291 287 229 266 87 118 99 88 119 129 143 168 159 185 122 128 132 281 275 264 270 270 267 273 279 292 295 290 307 334 344 350 344 330 100 136 136 135 127 132
90 75 76 36 35 358 55 61 310 319 359 356 295 329 323 352 334 358 87 42 50 58 116 148 167 147 185 188 214 262 265 263 262 272 271 267 255 247 242 251 264 284 286 298 294 305 319 123 93 140 146 144 136 133
38 12 15 18 22 42 51 338 285 333 324 327 346 330 332 342 55 32 32 353 170 55 34 1 284 274 266 267 264 264 262 243 240 239 255 260 242 245 251 246 238 247 245 237 230 235 229 231 135 137 133 127 121 109
360 359 357 1 5 7 351 65 316 332 281 314 325 335 345 43 47 42 324 301 55 76 27 317 296 291 287 282 275 261 257 254 245 238 229 234 231 227 230 228 229 228 220 217 219 225 205 168 130 122 118 113 100 104
28 1 354 0 329 40 48 317 324 13 336 350 324 5 49 24 13 303 24 359 353 229 305 303 294 287 279 281 277 269 259 250 244 239 226 216 211 208 205 219 214 216 214 212 221 219 199 138 112 109 108 107 113 114
4 30 19 17 13 4 315 9 338 333 300 359 347 352 18 353 342 24 328 319 303 305 314 316 304 296 292 273 260 259 253 224 223 224 217 208 196 187 186 199 204 204 210 203 204 202 188 142 124 124 126 130 135 138
63 0 3 357 14 351 23 14 352 354 9 359 342 355 11 345 20 22 334 301 315 318 320 310 300 286 281 285 285 284 280 261 224 198 177 182 175 165 171 184 187 196 190 195 194 182 143 144 135 130 133 136 141 143
65 17 15 15 4 25 357 3 8 348 321 332 358 337 312 345 5 343 319 310 302 319 314 308 312 314 315 325 318 319 45 85 89 112 143 155 158 159 160 165 177 184 191 194 174 146 138 139 132 137 136 131 132 142
55 48 39 237 294 286 322 316 271 296 6 12 359 348 2 18 355 332 312 306 305 309 304 300 295 304 325 344 348 353 30 56 100 111 121 131 144 157 161 168 175 173 158 180 154 142 134 137 140 135 133 139 140 139
43 12 68 5 33 333 359 360 18 15 4 347 336 27 31 5 333 325 299 305 304 303 304 326 347 7 14 2 4 7 359 40 103 114 120 116 122 136 129 106 107 112 132 134 125 123 126 129 128 137 136 134 134 140
42 41 303 19 32 48 40 23 7 2 339 329 44 42 31 355 305 298 300 303 314 12 26 22 13 4 33 48 29 23 26 59 86 93 85 83 94 87 95 100 96 99 99 90 73 98 110 121 129 125 125 126 125 129
68 355 331 25 37 45 15 354 38 16 28 55 96 117 41 355 313 308 328 2 16 17 16 24 23 29 28 33 45 43 24 30 45 71 78 69 63 69 78 90 86 87 90 97 105 105 103 103 105 112 115 118 121 125
89 312 14 59 70 87 139 40 99 65 41 53 49 53 21 342 307 321 358 352 8 17 27 26 32 30 35 40 32 33 41 20 28 49 62 65 69 79 92 102 106 107 112 116 116 111 117 116 116 120 123 123 127 134
176 358 115 96 75 75 250 13 51 65 35 46 36 37 27 345 38 25 359 355 23 28 20 27 30 27 27 37 46 49 36 35 24 21 34 55 67 72 85 96 111 124 125 121 120 123 121 122 124 125 128 132 134 133
83 82 90 67 52 335 96 58 57 89 61 56 42 32 38 29 47 7 353 19 26 25 26 29 39 43 37 35 29 25 31 51 57 42 41 43 41 44 67 73 80 95 106 107 115 126 130 130 130 130 130 133 134 137